This is the latest recevied weather packets stored in our database for station/object W0CHP-13. If no packets are shown the sender has not sent any weather packets the latest 10 day(s).
| Time | Temp. | Humidity | Pressure | Rain* | Wind** | Luminosity | Snow |
|---|---|---|---|---|---|---|---|
| 1778027596 | 11.11° C | 34% | 1008.5 hPa | 0 mm | - | 18 W/m² | - |
| 1778026998 | 11.11° C | 34% | 1008.5 hPa | 0 mm | - | 26 W/m² | - |
| 1778026396 | 11.67° C | 33% | 1008.5 hPa | 0 mm | - | 40 W/m² | - |
| 1778025799 | 11.67° C | 32% | 1008.5 hPa | 0 mm | - | 43 W/m² | - |
| 1778025197 | 11.67° C | 31% | 1008.5 hPa | 0 mm | - | 104 W/m² | - |
| 1778024595 | 11.67° C | 32% | 1008.5 hPa | 0 mm | - | 106 W/m² | - |
| 1778023997 | 11.67° C | 33% | 1008.4 hPa | 0 mm | - | 65 W/m² | - |
| 1778023395 | 11.67° C | 30% | 1008.5 hPa | 0 mm | - | 61 W/m² | - |
| 1778022797 | 12.22° C | 30% | 1008.5 hPa | 0 mm | - | 79 W/m² | - |
| 1778022195 | 12.22° C | 30% | 1008.5 hPa | 0 mm | - | 104 W/m² | - |
| 1778021598 | 12.78° C | 29% | 1008.5 hPa | 0 mm | - | 110 W/m² | - |
| 1778020996 | 12.78° C | 29% | 1008.5 hPa | 0 mm | - | 125 W/m² | - |
| 1778020398 | 12.78° C | 28% | 1008.5 hPa | 0 mm | - | 150 W/m² | - |
| 1778019796 | 12.78° C | 28% | 1008.5 hPa | 0 mm | - | 136 W/m² | - |
| 1778019198 | 12.78° C | 28% | 1008.5 hPa | 0 mm | - | 139 W/m² | - |
| 1778018596 | 12.78° C | 27% | 1008.2 hPa | 0 mm | - | 122 W/m² | - |
| 1778017999 | 12.78° C | 26% | 1008.5 hPa | 0 mm | - | 142 W/m² | - |
| 1778017397 | 13.33° C | 26% | 1008.5 hPa | 0 mm | - | 153 W/m² | - |
| 1778016795 | 13.33° C | 26% | 1008.7 hPa | 0 mm | - | 252 W/m² | - |
| 1778016197 | 13.33° C | 25% | 1008.5 hPa | 0 mm | - | 171 W/m² | - |
| 1778015595 | 13.33° C | 26% | 1008.5 hPa | 0 mm | - | 190 W/m² | - |
| 1778014998 | 13.89° C | 25% | 1008.5 hPa | 0 mm | - | 194 W/m² | - |
| 1778014396 | 13.89° C | 25% | 1008.4 hPa | 0 mm | - | 690 W/m² | - |
| 1778013798 | 13.89° C | 25% | 1008.7 hPa | 0 mm | - | 331 W/m² | - |
| 1778013196 | 14.44° C | 26% | 1008.7 hPa | 0 mm | - | 212 W/m² | - |
* Rain latest hour (hover to see other rain measurements)
** Current wind speed in m/s (hover to see current wind gust speed)